ASA518 KMSO-KSEA

Flight info

Callsign ASA518
Flight time 1h 1m
Altitude 38000
Route MLP GLASR3
Aircraft B737/M-SDE3FGIRW/LB1

Departure

Time 2026-04-21 02:22
Airport Missoula Montana Airport (KMSO)

Arrival

Time 2026-04-21 03:24
Airport Seattle–Tacoma International Airport (KSEA)
Time Latitude Longitude Altitude Speed Heading
2026-04-21 01:57 46.91948 -114.08574 3204 ft 0 kts 141°
2026-04-21 02:12 46.91962 -114.08591 3198 ft 3 kts 141°
2026-04-21 02:13 46.91977 -114.08608 3200 ft 3 kts 141°
2026-04-21 02:13 46.91989 -114.08623 3200 ft 0 kts 141°
2026-04-21 02:15 46.91988 -114.08621 3201 ft 1 kts 141°
2026-04-21 02:15 46.91983 -114.08617 3201 ft 1 kts 148°
2026-04-21 02:15 46.91976 -114.08616 3199 ft 1 kts 176°
2026-04-21 02:15 46.91970 -114.08619 3198 ft 1 kts 204°
2026-04-21 02:16 46.91966 -114.08626 3199 ft 1 kts 223°
2026-04-21 02:16 46.91963 -114.08634 3200 ft 1 kts 242°
2026-04-21 02:16 46.91959 -114.08646 3201 ft 2 kts 246°
2026-04-21 02:16 46.91954 -114.08666 3204 ft 3 kts 249°
2026-04-21 02:17 46.91948 -114.08694 3203 ft 3 kts 255°
2026-04-21 02:17 46.91944 -114.08718 3200 ft 4 kts 260°
2026-04-21 02:17 46.91939 -114.08763 3203 ft 5 kts 259°
2026-04-21 02:17 46.91932 -114.08812 3203 ft 5 kts 256°
2026-04-21 02:18 46.91914 -114.08864 3201 ft 7 kts 231°
2026-04-21 02:18 46.91871 -114.08924 3203 ft 10 kts 219°
2026-04-21 02:18 46.91810 -114.08997 3200 ft 12 kts 220°
2026-04-21 02:18 46.91732 -114.08998 3202 ft 12 kts 140°
2026-04-21 02:19 46.91674 -114.08901 3203 ft 14 kts 130°
2026-04-21 02:19 46.91602 -114.08778 3200 ft 18 kts 130°
2026-04-21 02:19 46.91515 -114.08628 3204 ft 20 kts 130°
2026-04-21 02:19 46.91428 -114.08478 3202 ft 19 kts 130°
2026-04-21 02:20 46.91343 -114.08333 3202 ft 18 kts 131°
2026-04-21 02:20 46.91260 -114.08194 3204 ft 18 kts 130°
2026-04-21 02:20 46.91181 -114.08059 3205 ft 17 kts 128°
2026-04-21 02:20 46.91105 -114.07927 3205 ft 17 kts 131°
2026-04-21 02:21 46.91031 -114.07802 3201 ft 16 kts 130°
2026-04-21 02:21 46.90959 -114.07717 3203 ft 12 kts 167°
2026-04-21 02:21 46.90874 -114.07719 3201 ft 12 kts 190°
2026-04-21 02:21 46.90813 -114.07771 3204 ft 8 kts 249°
2026-04-21 02:22 46.90838 -114.07845 3204 ft 10 kts 310°
2026-04-21 02:22 46.91007 -114.08134 3202 ft 78 kts 310°
2026-04-21 02:22 46.91535 -114.09030 3203 ft 151 kts 311°
2026-04-21 02:22 46.92279 -114.10291 3835 ft 168 kts 311°
2026-04-21 02:23 46.93048 -114.11622 4739 ft 178 kts 311°
2026-04-21 02:23 46.93924 -114.13115 5252 ft 207 kts 311°
2026-04-21 02:23 46.94903 -114.14809 5800 ft 229 kts 309°
2026-04-21 02:23 46.95981 -114.16711 6332 ft 256 kts 310°
2026-04-21 02:24 46.97167 -114.18754 7163 ft 266 kts 310°
2026-04-21 02:24 46.98388 -114.20837 8144 ft 272 kts 309°
2026-04-21 02:24 46.99630 -114.22963 9190 ft 276 kts 308°
2026-04-21 02:24 47.00888 -114.25118 10210 ft 280 kts 308°
2026-04-21 02:25 47.02196 -114.27366 10737 ft 303 kts 307°
2026-04-21 02:25 47.03629 -114.29834 11068 ft 329 kts 308°
2026-04-21 02:25 47.05139 -114.32427 11830 ft 338 kts 307°
2026-04-21 02:25 47.06686 -114.35049 12786 ft 342 kts 307°
2026-04-21 02:26 47.08265 -114.37707 13667 ft 349 kts 307°
2026-04-21 02:26 47.09866 -114.40401 14657 ft 349 kts 307°
2026-04-21 02:26 47.11460 -114.43090 15718 ft 351 kts 307°
2026-04-21 02:26 47.13072 -114.45818 16586 ft 357 kts 307°
2026-04-21 02:27 47.14710 -114.48595 17468 ft 362 kts 307°
2026-04-21 02:27 47.16367 -114.51405 18358 ft 366 kts 307°
2026-04-21 02:27 47.17991 -114.54308 19152 ft 367 kts 299°
2026-04-21 02:27 47.19074 -114.57674 19959 ft 364 kts 287°
2026-04-21 02:28 47.19964 -114.61177 20800 ft 367 kts 286°
2026-04-21 02:28 47.20841 -114.64720 21560 ft 371 kts 286°
2026-04-21 02:28 47.21728 -114.68309 22307 ft 375 kts 285°
2026-04-21 02:28 47.22627 -114.71925 23046 ft 379 kts 285°
2026-04-21 02:29 47.23545 -114.75594 23610 ft 386 kts 285°
2026-04-21 02:29 47.24481 -114.79314 24189 ft 388 kts 286°
2026-04-21 02:29 47.25420 -114.83027 24951 ft 386 kts 286°
2026-04-21 02:29 47.26358 -114.86734 25651 ft 387 kts 286°
2026-04-21 02:30 47.27302 -114.90471 26241 ft 391 kts 286°
2026-04-21 02:30 47.28250 -114.94231 26826 ft 393 kts 287°
2026-04-21 02:30 47.29193 -114.97976 27376 ft 396 kts 287°
2026-04-21 02:30 47.30151 -115.01787 27988 ft 398 kts 287°
2026-04-21 02:31 47.31113 -115.05618 28597 ft 400 kts 287°
2026-04-21 02:31 47.32078 -115.09472 29170 ft 402 kts 287°
2026-04-21 02:31 47.33048 -115.13349 29670 ft 404 kts 287°
2026-04-21 02:31 47.34021 -115.17250 30141 ft 407 kts 287°
2026-04-21 02:32 47.34997 -115.21166 30601 ft 408 kts 287°
2026-04-21 02:32 47.35971 -115.25080 31194 ft 405 kts 286°
2026-04-21 02:32 47.36932 -115.28943 31864 ft 398 kts 286°
2026-04-21 02:32 47.37877 -115.32747 32470 ft 393 kts 286°
2026-04-21 02:33 47.38812 -115.36526 32999 ft 391 kts 285°
2026-04-21 02:33 47.39743 -115.40297 33487 ft 391 kts 285°
2026-04-21 02:33 47.40669 -115.44056 34001 ft 388 kts 285°
2026-04-21 02:33 47.41585 -115.47781 34453 ft 385 kts 285°
2026-04-21 02:34 47.42497 -115.51498 34796 ft 386 kts 285°
2026-04-21 02:34 47.43412 -115.55229 35095 ft 387 kts 285°
2026-04-21 02:34 47.44326 -115.58961 35457 ft 386 kts 285°
2026-04-21 02:34 47.45239 -115.62691 35838 ft 385 kts 284°
2026-04-21 02:35 47.45906 -115.66484 36133 ft 379 kts 272°
2026-04-21 02:35 47.46143 -115.70356 36495 ft 378 kts 272°
2026-04-21 02:35 47.46364 -115.74219 36891 ft 376 kts 272°
2026-04-21 02:35 47.46585 -115.78069 37231 ft 376 kts 272°
2026-04-21 02:36 47.46809 -115.81911 37583 ft 375 kts 272°
2026-04-21 02:36 47.47036 -115.85740 37936 ft 375 kts 271°
2026-04-21 02:36 47.47266 -115.89592 38155 ft 378 kts 271°
2026-04-21 02:36 47.47499 -115.93464 38450 ft 378 kts 271°
2026-04-21 02:37 47.47731 -115.97325 38803 ft 376 kts 271°
2026-04-21 02:37 47.47959 -116.01136 38987 ft 378 kts 272°
2026-04-21 02:37 47.48194 -116.05074 39137 ft 382 kts 272°
2026-04-21 02:37 47.48426 -116.09000 39309 ft 384 kts 271°
2026-04-21 02:38 47.48658 -116.12921 39566 ft 383 kts 271°
2026-04-21 02:38 47.48886 -116.16784 39816 ft 383 kts 272°
2026-04-21 02:38 47.49116 -116.20733 39793 ft 388 kts 272°
2026-04-21 02:39 47.49580 -116.28767 39845 ft 397 kts 272°
2026-04-21 02:39 47.50047 -116.36917 39843 ft 398 kts 271°
2026-04-21 02:40 47.50509 -116.45056 39849 ft 397 kts 271°
2026-04-21 02:40 47.50962 -116.53182 39868 ft 397 kts 271°
2026-04-21 02:41 47.51409 -116.61306 39853 ft 397 kts 271°
2026-04-21 02:41 47.51852 -116.69451 39862 ft 397 kts 271°
2026-04-21 02:42 47.52288 -116.77591 39863 ft 397 kts 271°
2026-04-21 02:42 47.52718 -116.85719 39865 ft 396 kts 271°
2026-04-21 02:43 47.53142 -116.93836 39870 ft 395 kts 270°
2026-04-21 02:43 47.53560 -117.01949 39873 ft 395 kts 270°
2026-04-21 02:44 47.53971 -117.10057 39854 ft 395 kts 270°
2026-04-21 02:44 47.54376 -117.18164 39857 ft 395 kts 270°
2026-04-21 02:45 47.54776 -117.26282 39856 ft 396 kts 270°
2026-04-21 02:45 47.55170 -117.34400 39854 ft 396 kts 270°
2026-04-21 02:46 47.55559 -117.42528 39844 ft 396 kts 270°
2026-04-21 02:46 47.55941 -117.50655 39853 ft 396 kts 269°
2026-04-21 02:47 47.56319 -117.58785 39852 ft 396 kts 269°
2026-04-21 02:47 47.56810 -117.66905 39843 ft 398 kts 273°
2026-04-21 02:48 47.57607 -117.74971 39842 ft 399 kts 274°
2026-04-21 02:48 47.58438 -117.83099 39837 ft 399 kts 274°
2026-04-21 02:49 47.59234 -117.91233 39832 ft 399 kts 273°
2026-04-21 02:49 47.60009 -117.99390 39835 ft 400 kts 273°
2026-04-21 02:50 47.60772 -118.07552 39832 ft 400 kts 273°
2026-04-21 02:50 47.61530 -118.15731 39824 ft 401 kts 272°
2026-04-21 02:51 47.62283 -118.23917 39821 ft 401 kts 272°
2026-04-21 02:51 47.63030 -118.32102 39823 ft 401 kts 272°
2026-04-21 02:52 47.63772 -118.40293 39820 ft 401 kts 272°
2026-04-21 02:52 47.64509 -118.48512 39821 ft 402 kts 272°
2026-04-21 02:53 47.65242 -118.56743 39819 ft 403 kts 272°
2026-04-21 02:53 47.65971 -118.64990 39820 ft 403 kts 272°
2026-04-21 02:54 47.66693 -118.73240 39814 ft 403 kts 272°
2026-04-21 02:54 47.67410 -118.81492 39814 ft 403 kts 272°
2026-04-21 02:55 47.68120 -118.89746 39812 ft 403 kts 272°
2026-04-21 02:55 47.68825 -118.98006 39803 ft 404 kts 271°
2026-04-21 02:56 47.69525 -119.06289 39810 ft 404 kts 271°
2026-04-21 02:56 47.70566 -119.18741 39809 ft 405 kts 271°
2026-04-21 02:57 47.71254 -119.27055 39809 ft 406 kts 271°
2026-04-21 02:57 47.71931 -119.35325 39820 ft 406 kts 271°
2026-04-21 02:58 47.72607 -119.43640 39805 ft 406 kts 271°
2026-04-21 02:58 47.73277 -119.51961 39794 ft 406 kts 271°
2026-04-21 02:59 47.73943 -119.60300 39798 ft 406 kts 271°
2026-04-21 02:59 47.74603 -119.68645 39801 ft 407 kts 271°
2026-04-21 03:00 47.75257 -119.76996 39800 ft 407 kts 271°
2026-04-21 03:00 47.75905 -119.85361 39804 ft 408 kts 270°
2026-04-21 03:01 47.76547 -119.93743 39788 ft 409 kts 270°
2026-04-21 03:01 47.76867 -119.97953 39552 ft 412 kts 270°
2026-04-21 03:01 47.77186 -120.02166 39316 ft 408 kts 270°
2026-04-21 03:02 47.77503 -120.06340 39084 ft 405 kts 270°
2026-04-21 03:02 47.77815 -120.10493 38863 ft 404 kts 269°
2026-04-21 03:02 47.78125 -120.14652 38369 ft 405 kts 269°
2026-04-21 03:02 47.78434 -120.18799 37720 ft 402 kts 269°
2026-04-21 03:03 47.78741 -120.22932 37042 ft 401 kts 269°
2026-04-21 03:03 47.79045 -120.27047 36367 ft 400 kts 269°
2026-04-21 03:03 47.79346 -120.31152 35701 ft 399 kts 269°
2026-04-21 03:03 47.79644 -120.35256 34921 ft 400 kts 269°
2026-04-21 03:04 47.79943 -120.39381 34148 ft 402 kts 269°
2026-04-21 03:04 47.80140 -120.42119 33548 ft 402 kts 268°
2026-04-21 03:04 47.80437 -120.46245 32745 ft 398 kts 269°
2026-04-21 03:04 47.80731 -120.50360 31828 ft 402 kts 269°
2026-04-21 03:05 47.81023 -120.54496 30905 ft 403 kts 270°
2026-04-21 03:05 47.81317 -120.58660 29988 ft 406 kts 270°
2026-04-21 03:05 47.81611 -120.62844 29184 ft 405 kts 270°
2026-04-21 03:05 47.81903 -120.67000 28429 ft 402 kts 271°
2026-04-21 03:06 47.82191 -120.71129 27725 ft 399 kts 271°
2026-04-21 03:06 47.82476 -120.75230 27028 ft 398 kts 271°
2026-04-21 03:06 47.82758 -120.79319 26324 ft 398 kts 271°
2026-04-21 03:06 47.83038 -120.83423 25660 ft 399 kts 272°
2026-04-21 03:07 47.83316 -120.87499 24957 ft 402 kts 272°
2026-04-21 03:07 47.83602 -120.91710 24233 ft 405 kts 272°
2026-04-21 03:07 47.83880 -120.95830 23510 ft 407 kts 272°
2026-04-21 03:07 47.84162 -121.00031 22673 ft 408 kts 273°
2026-04-21 03:08 47.84442 -121.04224 21892 ft 405 kts 272°
2026-04-21 03:08 47.84721 -121.08419 21178 ft 399 kts 272°
2026-04-21 03:08 47.84991 -121.12495 20475 ft 394 kts 272°
2026-04-21 03:08 47.85252 -121.16481 19763 ft 390 kts 272°
2026-04-21 03:09 47.85512 -121.20464 19202 ft 384 kts 272°
2026-04-21 03:09 47.85769 -121.24386 18656 ft 377 kts 272°
2026-04-21 03:09 47.86022 -121.28251 18006 ft 374 kts 272°
2026-04-21 03:09 47.86261 -121.32087 17282 ft 368 kts 272°
2026-04-21 03:10 47.86504 -121.35863 16561 ft 366 kts 272°
2026-04-21 03:10 47.86744 -121.39620 15850 ft 363 kts 272°
2026-04-21 03:10 47.86982 -121.43356 15177 ft 360 kts 272°
2026-04-21 03:10 47.87214 -121.47061 14465 ft 357 kts 271°
2026-04-21 03:11 47.87442 -121.50730 13766 ft 355 kts 271°
2026-04-21 03:11 47.87634 -121.54375 13013 ft 350 kts 271°
2026-04-21 03:11 47.87871 -121.57958 12521 ft 343 kts 273°
2026-04-21 03:11 47.88100 -121.61401 12372 ft 327 kts 272°
2026-04-21 03:12 47.88309 -121.64695 12186 ft 311 kts 272°
2026-04-21 03:12 47.88440 -121.67872 12083 ft 306 kts 262°
2026-04-21 03:12 47.87853 -121.70829 12038 ft 294 kts 239°
2026-04-21 03:12 47.86643 -121.73199 11959 ft 283 kts 223°
2026-04-21 03:13 47.85215 -121.75181 11560 ft 280 kts 220°
2026-04-21 03:13 47.83747 -121.77115 11021 ft 283 kts 220°
2026-04-21 03:13 47.82497 -121.79388 10484 ft 290 kts 244°
2026-04-21 03:13 47.81927 -121.82275 10057 ft 291 kts 255°
2026-04-21 03:14 47.81462 -121.85219 9547 ft 293 kts 255°
2026-04-21 03:14 47.81000 -121.88163 9130 ft 291 kts 255°
2026-04-21 03:14 47.80552 -121.91031 8784 ft 286 kts 255°
2026-04-21 03:14 47.80102 -121.93900 8421 ft 283 kts 255°
2026-04-21 03:15 47.79647 -121.96737 8032 ft 281 kts 255°
2026-04-21 03:15 47.79188 -121.99554 7693 ft 278 kts 255°
2026-04-21 03:15 47.78734 -122.02329 7331 ft 275 kts 255°
2026-04-21 03:15 47.78278 -122.05083 7060 ft 273 kts 255°
2026-04-21 03:16 47.77817 -122.07837 7030 ft 276 kts 255°
2026-04-21 03:16 47.77351 -122.10600 7014 ft 274 kts 255°
2026-04-21 03:16 47.76889 -122.13331 6941 ft 270 kts 255°
2026-04-21 03:16 47.76435 -122.16014 6610 ft 267 kts 255°
2026-04-21 03:17 47.75977 -122.18697 6191 ft 268 kts 255°
2026-04-21 03:17 47.75515 -122.21370 5806 ft 266 kts 255°
2026-04-21 03:17 47.75053 -122.24030 5403 ft 266 kts 255°
2026-04-21 03:17 47.74563 -122.26644 5135 ft 259 kts 248°
2026-04-21 03:18 47.73461 -122.28671 4862 ft 253 kts 213°
2026-04-21 03:18 47.71905 -122.29820 4685 ft 247 kts 205°
2026-04-21 03:18 47.70352 -122.30871 4430 ft 243 kts 205°
2026-04-21 03:18 47.68772 -122.31608 4211 ft 235 kts 184°
2026-04-21 03:19 47.67198 -122.31601 4108 ft 219 kts 181°
2026-04-21 03:19 47.65719 -122.31619 4012 ft 205 kts 182°
2026-04-21 03:19 47.64335 -122.31641 3867 ft 193 kts 182°
2026-04-21 03:19 47.63020 -122.31653 3652 ft 184 kts 182°
2026-04-21 03:20 47.61764 -122.31665 3411 ft 177 kts 181°
2026-04-21 03:20 47.60545 -122.31674 3176 ft 173 kts 181°
2026-04-21 03:20 47.59348 -122.31684 2947 ft 171 kts 181°
2026-04-21 03:20 47.58160 -122.31694 2730 ft 170 kts 182°
2026-04-21 03:21 47.56976 -122.31705 2492 ft 170 kts 182°
2026-04-21 03:21 47.55810 -122.31714 2285 ft 170 kts 182°
2026-04-21 03:21 47.54651 -122.31721 2075 ft 160 kts 182°
2026-04-21 03:21 47.53580 -122.31730 1835 ft 146 kts 182°
2026-04-21 03:22 47.52615 -122.31738 1631 ft 132 kts 183°
2026-04-21 03:22 47.51715 -122.31745 1486 ft 130 kts 184°
2026-04-21 03:22 47.50804 -122.31753 1309 ft 129 kts 183°
2026-04-21 03:22 47.49905 -122.31761 1137 ft 129 kts 184°
2026-04-21 03:23 47.49011 -122.31768 960 ft 127 kts 182°
2026-04-21 03:23 47.48120 -122.31777 810 ft 131 kts 182°
2026-04-21 03:23 47.47215 -122.31785 655 ft 129 kts 182°
2026-04-21 03:23 47.46322 -122.31789 457 ft 128 kts 181°
2026-04-21 03:24 47.45520 -122.31796 403 ft 91 kts 180°
2026-04-21 03:24 47.45097 -122.31798 393 ft 41 kts 178°
2026-04-21 03:24 47.44908 -122.31756 389 ft 23 kts 160°
2026-04-21 03:24 47.44772 -122.31656 383 ft 21 kts 149°
2026-04-21 03:25 47.44677 -122.31524 384 ft 16 kts 120°
2026-04-21 03:25 47.44645 -122.31374 388 ft 15 kts 96°
2026-04-21 03:25 47.44644 -122.31221 393 ft 15 kts 92°
2026-04-21 03:25 47.44611 -122.31086 393 ft 14 kts 130°
2026-04-21 03:26 47.44529 -122.31000 391 ft 15 kts 147°
2026-04-21 03:26 47.44441 -122.30929 390 ft 14 kts 151°
2026-04-21 03:26 47.44365 -122.30842 392 ft 14 kts 124°
2026-04-21 03:26 47.44350 -122.30710 392 ft 13 kts 85°
2026-04-21 03:27 47.44410 -122.30633 394 ft 13 kts
2026-04-21 03:27 47.44497 -122.30631 396 ft 12 kts
2026-04-21 03:27 47.44582 -122.30632 397 ft 12 kts
2026-04-21 03:27 47.44665 -122.30629 399 ft 12 kts
2026-04-21 03:28 47.44745 -122.30630 403 ft 11 kts 360°
2026-04-21 03:28 47.44824 -122.30629 405 ft 11 kts
2026-04-21 03:28 47.44900 -122.30627 407 ft 11 kts
2026-04-21 03:28 47.44973 -122.30627 410 ft 10 kts 359°
2026-04-21 03:29 47.45042 -122.30609 412 ft 10 kts 44°
2026-04-21 03:29 47.45046 -122.30508 413 ft 10 kts 91°
2026-04-21 03:29 47.45044 -122.30407 413 ft 10 kts 92°
2026-04-21 03:29 47.45040 -122.30310 409 ft 9 kts 98°
2026-04-21 03:30 47.45010 -122.30228 411 ft 8 kts 129°
2026-04-21 03:30 47.44976 -122.30172 410 ft 7 kts 135°
2026-04-21 03:30 47.44964 -122.30159 404 ft 2 kts 152°
2026-04-21 03:30 47.44952 -122.30159 409 ft 2 kts 185°
2026-04-21 03:31 47.44943 -122.30165 409 ft 1 kts 208°
2026-04-21 03:31 47.44934 -122.30175 406 ft 2 kts 218°
2026-04-21 03:31 47.44926 -122.30185 408 ft 2 kts 219°
2026-04-21 03:31 47.44918 -122.30194 408 ft 1 kts 220°
2026-04-21 03:32 47.44911 -122.30203 405 ft 1 kts 220°
2026-04-21 03:32 47.44910 -122.30203 405 ft 0 kts 220°